Regional Weather Roundup
Issued by NWS Albany, NY

Home | Current Version | Previous Version | Text Only | Print | Product List | Glossary On
Versions: 1 2 3 4 5 6 7 8 9 10 11 12 13 14 15 16 17 18 19 20 21 22 23 24 25 26 27 28 29 30 31 32 33 34 35 36 37 38 39 40 41 42 43 44 45 46 47 48 49 50
848
ASUS41 KALY 111410
RWRALY

NEW YORK STATE HOURLY WEATHER ROUNDUP
NATIONAL WEATHER SERVICE ALBANY NY
900 AM EST THU FEB 11 2016

NOTE: "FAIR" INDICATES FEW OR NO CLOUDS BELOW 12,000 FEET WITH NO
SIGNIFICANT WEATHER AND/OR NO OBSTRUCTIONS TO VISIBILITY.

NYZ032-033-038>043-046>054-057>066-NYZ062>081-111500-
EAST


CITY           SKY/WX    TMP DP  RH WIND       PRES   REMARKS
ALBANY         PTSUNNY   20   3  48 W17G23    29.81R WCI   5
GLENS FALLS    CLOUDY    20   1  43 W8        29.76R WCI  10
POUGHKEEPSIE   MOSUNNY   23   2  40 W15G23    29.85R WCI  10
NEWBURGH       MOSUNNY   19   5  53 W17G29    29.84R WCI   4
MONTGOMERY     SUNNY     21   3  45 W17G28    29.84S WCI   7
WHITE PLAINS   MOSUNNY   21   0  39 W20G29    29.84R WCI   6
ISLIP          MOSUNNY   24   2  38 NW20      29.85R WCI  10
NEW YORK CITY  MOSUNNY   26   3  37 W16G28    29.90R WCI  14
CENTRAL PARK   SUNNY     23  -1  35 W14G29    29.91R WCI  11
$$

NYZ005>009-017-018-044>046-055-056-111500-
CENTRAL


CITY           SKY/WX    TMP DP  RH WIND       PRES   REMARKS
FULTON         LGT SNOW  14   5  67 W17G24    29.86R WCI  -3
SYRACUSE       LGT SNOW  11   6  81 W20G28    29.87R BLWGSNOWWCI  -7
ROME           LGT SNOW  12   5  73 W16G26    29.85R WCI  -5
ELMIRA         MOSUNNY   13  -1  54 W13G22    29.89R WCI  -2
BINGHAMTON     LGT SNOW  11   0  61 W17G29    29.76R WCI  -6
MONTICELLO     CLOUDY    12   1  62 W16G26    29.78R WCI  -4
$$

NYZ026>034-041>043-111500-
NORTH


CITY           SKY/WX    TMP DP  RH WIND       PRES   REMARKS
WATERTOWN      LGT SNOW   6  -1  73 NW14      29.89R WCI -11
FORT DRUM      NOT AVBL
MASSENA        PTSUNNY    4  -5  66 W12       29.85R WCI -12
SARANAC LAKE   MOSUNNY    7   1  76 W8        29.63R WCI  -6
PLATTSBURGH    CLOUDY    18   7  62 NW7       29.74R WCI   9
$$

NYZ001>004-010>016-019>021-111500-
WEST


CITY           SKY/WX    TMP DP  RH WIND       PRES   REMARKS
NIAGARA FALLS  FLURRIES  11  -2  56 W21G29    29.99R WCI  -8
BUFFALO        PTSUNNY    8  -1  66 W12       29.98R WCI  -7
DUNKIRK        CLOUDY    11   1  64 NW14G25   30.03R WCI  -5
JAMESTOWN      CLOUDY     9   1  72 NW18      29.90R VSB 1   WCI -10
WELLSVILLE     SNOW       7   2  80 NW13      29.83R VSB 1/2 WCI  -9
ROCHESTER      LGT SNOW  10   1  67 NW21G30   29.94R BLWGSNOWWCI  -9
PENN YAN       CLOUDY    12  -1  56 W20G29    29.89R WCI  -6
$$

             KEY
       WCI = WIND CHILL INDEX
       VSB = VISIBILITY
       HX  = HEAT INDEX
$$




USA.gov is the U.S. government's official web portal to all federal, state and local government web resources and services.